Sauk Centre, MN

10:15 AM CDT on October 19, 2019 (GMT -0500)
Sauk Centre

Weather History for KD39 - August, 2019

Change the Weather History Date:

Wednesday, August 7, 2019

  Actual Average (WUND) Record (WUND)
Temperature  
Mean Temperature 70 °F -  
Max Temperature 80 °F - - (-1)
Min Temperature 58 °F - - (-1)
Cooling Degree Days 4    
Growing Degree Days 20 (Base 50)    
Moisture  
Dew Point 59 °F    
Average Humidity 70    
Maximum Humidity 92    
Minimum Humidity 47    
Precipitation  
Precipitation 0.00 in - - ()
Sea Level Pressure  
Sea Level Pressure 29.83 in    
Wind  
Wind Speed 7 mph (WNW)    
Max Wind Speed 18 mph    
Max Gust Speed 24 mph    
Visibility 10 miles    
Events      
Averages and records for this station are not official NWS values.
T = Trace of Precipitation, MM = Missing Value Source: NWS Daily Summary

Daily Weather History Graph

Daily Weather History Graph

Search for Another Location

Airport or City:

Astronomy

Aug. 07, 2019 Rise Set
Actual Time 6:09 AM CDT 8:40 PM CDT
Civil Twilight 5:36 AM CDT 9:13 PM CDT
Nautical Twilight 4:54 AM CDT 9:55 PM CDT
Astronomical Twilight 4:06 AM CDT 10:43 PM CDT
Moon 2:06 PM CDT (8/7) 12:06 AM CDT (8/7)
Length of Visible Light 15h 37m
Length of Day
14h 30m
Waxing Crescent, 50% of the Moon is Illuminated
Aug 7
Waxing Crescent
Aug 7
First Quarter
Aug 15
Full
Aug 23
Last Quarter
Aug 30
New

Hourly Weather History & Observations

Time (CDT) Temp. Heat Index Dew Point Humidity Pressure Visibility Wind Dir Wind Speed Gust Speed Precip Events Conditions
12:15 AM 66.6 °F - 62.1 °F 85% 29.79 in 10.0 mi SSE 3.5 mph - N/A   Clear
12:16 AM 66.6 °F - 62.1 °F 85% 29.79 in 10.0 mi Calm Calm - N/A   Clear
12:36 AM 65.3 °F - 61.5 °F 88% 29.78 in 10.0 mi SSE 5.8 mph - N/A   Clear
12:55 AM 63.7 °F - 61.2 °F 91% 29.78 in 10.0 mi South 4.6 mph - N/A   Clear
12:56 AM 63.7 °F - 61.2 °F 91% 29.78 in 10.0 mi South 4.6 mph - N/A   Clear
1:15 AM 64.2 °F - 61.3 °F 90% 29.79 in 10.0 mi Calm Calm - N/A   Clear
1:38 AM 63.3 °F - 60.3 °F 90% 29.79 in 10.0 mi Calm Calm - N/A   Clear
1:56 AM 63.1 °F - 60.3 °F 90% 29.80 in 10.0 mi Calm Calm - N/A   Clear
2:16 AM 62.8 °F - 59.9 °F 90% 29.81 in 10.0 mi Calm Calm - N/A   Scattered Clouds
2:35 AM 63.5 °F - 61.2 °F 92% 29.81 in 10.0 mi Calm Calm - N/A   Mostly Cloudy
2:36 AM 63.7 °F - 61.2 °F 91% 29.81 in 10.0 mi Calm Calm - N/A   Mostly Cloudy
2:56 AM 64.4 °F - 61.3 °F 90% 29.80 in 10.0 mi Calm Calm - N/A   Mostly Cloudy
3:15 AM 65.3 °F - 61.7 °F 88% 29.80 in 10.0 mi Calm Calm - N/A   Scattered Clouds
3:19 AM 66.0 °F - 61.7 °F 86% 29.80 in 10.0 mi Calm Calm - N/A   Scattered Clouds
3:38 AM 66.6 °F - 61.0 °F 82% 29.79 in 10.0 mi WSW 5.8 mph - N/A   Scattered Clouds
3:56 AM 66.2 °F - 61.0 °F 83% 29.80 in 10.0 mi WSW 5.8 mph - N/A   Mostly Cloudy
4:16 AM 65.7 °F - 60.8 °F 84% 29.80 in 10.0 mi SW 4.6 mph - N/A   Mostly Cloudy
4:35 AM 64.9 °F - 60.3 °F 85% 29.80 in 10.0 mi SW 5.8 mph - N/A   Scattered Clouds
4:36 AM 64.8 °F - 60.3 °F 85% 29.80 in 10.0 mi SW 5.8 mph - N/A   Scattered Clouds
4:55 AM 64.6 °F - 60.3 °F 86% 29.80 in 10.0 mi SW 5.8 mph - N/A   Clear
4:58 AM 64.6 °F - 60.3 °F 86% 29.80 in 10.0 mi SW 5.8 mph - N/A   Clear
5:18 AM 64.4 °F - 60.3 °F 86% 29.79 in 10.0 mi SW 3.5 mph - N/A   Clear
5:35 AM 63.7 °F - 59.9 °F 87% 29.79 in 10.0 mi SSW 3.5 mph - N/A   Clear
5:55 AM 62.8 °F - 59.9 °F 90% 29.79 in 10.0 mi SW 3.5 mph - N/A   Clear
5:56 AM 62.8 °F - 59.9 °F 90% 29.79 in 10.0 mi Calm Calm - N/A   Clear
6:15 AM 61.9 °F - 59.0 °F 90% 29.79 in 10.0 mi Calm Calm - N/A   Clear
6:16 AM 61.9 °F - 59.0 °F 90% 29.79 in 10.0 mi Calm Calm - N/A   Clear
6:38 AM 63.5 °F - 59.9 °F 88% 29.79 in 10.0 mi Calm Calm - N/A   Scattered Clouds
6:56 AM 63.7 °F - 60.1 °F 88% 29.80 in 10.0 mi West 5.8 mph - N/A   Scattered Clouds
7:15 AM 65.8 °F - 60.4 °F 83% 29.81 in 10.0 mi West 8.1 mph - N/A   Scattered Clouds
7:35 AM 65.3 °F - 60.6 °F 85% 29.81 in 10.0 mi West 6.9 mph - N/A   Scattered Clouds
7:36 AM 65.3 °F - 60.8 °F 85% 29.81 in 10.0 mi West 8.1 mph - N/A   Scattered Clouds
7:55 AM 66.4 °F - 61.3 °F 84% 29.81 in 10.0 mi West 4.6 mph - N/A   Clear
7:59 AM 66.6 °F - 61.3 °F 83% 29.81 in 10.0 mi West 5.8 mph - N/A   Clear
8:18 AM 67.1 °F - 61.3 °F 82% 29.80 in 10.0 mi WNW 5.8 mph - N/A   Clear
8:36 AM 68.9 °F - 61.9 °F 78% 29.81 in 10.0 mi West 6.9 mph - N/A   Clear
8:56 AM 70.2 °F - 63.0 °F 78% 29.81 in 7.0 mi West 10.4 mph - N/A   Clear
9:15 AM 71.6 °F - 63.1 °F 75% 29.81 in 10.0 mi West 8.1 mph - N/A   Clear
9:18 AM 71.8 °F - 63.1 °F 74% 29.81 in 10.0 mi West 8.1 mph - N/A   Clear
9:35 AM 72.5 °F - 63.5 °F 73% 29.81 in 10.0 mi West 10.4 mph 16.1 mph N/A   Clear
9:36 AM 72.5 °F - 63.5 °F 73% 29.81 in 10.0 mi West 10.4 mph 16.1 mph N/A   Clear
9:55 AM 73.4 °F - 63.0 °F 70% 29.81 in 10.0 mi WNW 13.8 mph - N/A   Clear
9:59 AM 73.4 °F - 63.1 °F 70% 29.81 in 10.0 mi WNW 11.5 mph - N/A   Clear
10:17 AM 74.3 °F - 62.8 °F 67% 29.82 in 10.0 mi WNW 12.7 mph 19.6 mph N/A   Clear
10:35 AM 75.2 °F - 62.8 °F 65% 29.82 in 10.0 mi WNW 11.5 mph - N/A   Clear
10:55 AM 76.6 °F - 62.6 °F 62% 29.82 in 10.0 mi WNW 12.7 mph 19.6 mph N/A   Clear
10:56 AM 76.8 °F - 62.4 °F 61% 29.82 in 10.0 mi NW 13.8 mph 19.6 mph N/A   Clear
11:15 AM 77.4 °F - 62.6 °F 60% 29.82 in 10.0 mi WNW 11.5 mph 17.3 mph N/A   Clear
11:16 AM 77.5 °F - 62.6 °F 60% 29.82 in 10.0 mi WNW 12.7 mph 17.3 mph N/A   Clear
11:35 AM 77.5 °F - 61.5 °F 58% 29.83 in 10.0 mi NW 12.7 mph - N/A   Clear
11:36 AM 77.5 °F - 61.5 °F 58% 29.83 in 10.0 mi NW 13.8 mph - N/A   Clear
11:55 AM 78.8 °F - 61.3 °F 55% 29.83 in 10.0 mi WNW 16.1 mph - N/A   Clear
11:59 AM 79.0 °F - 60.3 °F 53% 29.83 in 10.0 mi NW 17.3 mph - N/A   Clear
12:19 PM 78.8 °F - 60.4 °F 53% 29.83 in 10.0 mi West 12.7 mph - N/A   Clear
12:36 PM 79.7 °F - 59.0 °F 49% 29.83 in 10.0 mi NW 18.4 mph 23.0 mph N/A   Scattered Clouds
12:55 PM 79.7 °F - 57.6 °F 47% 29.83 in 10.0 mi NW 16.1 mph 24.2 mph N/A   Clear
1:15 PM 79.9 °F - 58.3 °F 48% 29.83 in 10.0 mi WNW 16.1 mph - N/A   Scattered Clouds
1:35 PM 79.9 °F - 59.7 °F 50% 29.84 in 10.0 mi WNW 13.8 mph 18.4 mph N/A   Scattered Clouds
1:36 PM 80.1 °F 80.9 °F 59.9 °F 50% 29.84 in 10.0 mi WNW 12.7 mph 18.4 mph N/A   Scattered Clouds
1:59 PM 80.4 °F 81.2 °F 60.1 °F 50% 29.84 in 10.0 mi NW 16.1 mph - N/A   Scattered Clouds
2:17 PM 80.1 °F 80.6 °F 58.1 °F 47% 29.83 in 10.0 mi West 15.0 mph 20.7 mph N/A   Clear
2:35 PM 80.4 °F 81.0 °F 59.0 °F 48% 29.83 in 10.0 mi WNW 13.8 mph 20.7 mph N/A   Scattered Clouds
2:36 PM 80.2 °F 80.8 °F 58.8 °F 48% 29.84 in 10.0 mi WNW 13.8 mph - N/A   Scattered Clouds
2:55 PM 79.5 °F - 57.6 °F 47% 29.84 in 10.0 mi WNW 16.1 mph 23.0 mph N/A   Scattered Clouds
2:56 PM 79.5 °F - 57.7 °F 47% 29.84 in 10.0 mi WNW 16.1 mph 23.0 mph N/A   Scattered Clouds
3:15 PM 79.5 °F - 57.7 °F 47% 29.84 in 10.0 mi WNW 16.1 mph - N/A   Clear
3:20 PM 79.7 °F - 58.3 °F 48% 29.84 in 10.0 mi West 13.8 mph 19.6 mph N/A   Clear
3:35 PM 80.1 °F 80.7 °F 58.6 °F 48% 29.83 in 10.0 mi WNW 13.8 mph - N/A   Scattered Clouds
3:57 PM 77.9 °F - 57.6 °F 49% 29.84 in 10.0 mi NW 16.1 mph 23.0 mph N/A   Scattered Clouds
4:16 PM 77.5 °F - 57.9 °F 51% 29.84 in 10.0 mi WNW 17.3 mph 21.9 mph N/A   Scattered Clouds
4:36 PM 77.4 °F - 58.1 °F 51% 29.85 in 10.0 mi NW 18.4 mph 23.0 mph N/A   Scattered Clouds
4:55 PM 76.3 °F - 59.5 °F 56% 29.85 in 10.0 mi NW 15.0 mph 23.0 mph N/A   Clear
4:56 PM 76.3 °F - 59.5 °F 56% 29.85 in 10.0 mi NW 16.1 mph 23.0 mph N/A   Clear
5:15 PM 76.5 °F - 59.7 °F 56% 29.85 in 10.0 mi WNW 15.0 mph 19.6 mph N/A   Scattered Clouds
5:19 PM 76.8 °F - 59.5 °F 55% 29.85 in 10.0 mi WNW 18.4 mph - N/A   Scattered Clouds
5:37 PM 76.5 °F - 59.5 °F 56% 29.85 in 10.0 mi NW 17.3 mph 21.9 mph N/A   Clear
5:56 PM 75.9 °F - 58.6 °F 55% 29.85 in 10.0 mi WNW 16.1 mph 24.2 mph N/A   Clear
6:15 PM 75.4 °F - 58.6 °F 56% 29.84 in 10.0 mi NW 13.8 mph - N/A   Clear
6:16 PM 75.4 °F - 58.5 °F 56% 29.85 in 10.0 mi NW 15.0 mph - N/A   Clear
6:35 PM 74.1 °F - 58.3 °F 58% 29.85 in 10.0 mi NW 13.8 mph 20.7 mph N/A   Scattered Clouds
6:36 PM 73.9 °F - 58.3 °F 58% 29.85 in 10.0 mi NW 15.0 mph 20.7 mph N/A   Scattered Clouds
6:55 PM 73.9 °F - 56.8 °F 55% 29.84 in 10.0 mi WNW 11.5 mph 19.6 mph N/A   Scattered Clouds
6:59 PM 73.4 °F - 56.7 °F 56% 29.84 in 10.0 mi WNW 12.7 mph - N/A   Scattered Clouds
7:17 PM 73.2 °F - 56.5 °F 56% 29.84 in 10.0 mi WNW 12.7 mph - N/A   Clear
7:36 PM 72.3 °F - 55.9 °F 56% 29.84 in 10.0 mi WNW 13.8 mph 18.4 mph N/A   Clear
7:55 PM 71.1 °F - 56.7 °F 60% 29.85 in 10.0 mi WNW 9.2 mph - N/A   Clear
7:56 PM 70.9 °F - 56.7 °F 61% 29.85 in 10.0 mi WNW 9.2 mph - N/A   Clear
8:15 PM 69.8 °F - 57.0 °F 64% 29.85 in 10.0 mi WNW 8.1 mph - N/A   Clear
8:16 PM 69.8 °F - 57.0 °F 64% 29.85 in 10.0 mi WNW 8.1 mph - N/A   Clear
8:38 PM 68.5 °F - 56.8 °F 66% 29.86 in 10.0 mi WNW 6.9 mph - N/A   Clear
8:58 PM 66.2 °F - 57.0 °F 72% 29.86 in 10.0 mi WNW 6.9 mph - N/A   Clear
9:15 PM 66.4 °F - 56.3 °F 70% 29.87 in 10.0 mi NW 9.2 mph - N/A   Clear
9:35 PM 64.9 °F - 56.3 °F 74% 29.89 in 10.0 mi NW 8.1 mph - N/A   Clear
9:36 PM 64.8 °F - 56.3 °F 74% 29.89 in 10.0 mi NW 8.1 mph - N/A   Clear
9:55 PM 64.8 °F - 56.3 °F 74% 29.90 in 10.0 mi NW 9.2 mph - N/A   Clear
9:56 PM 64.8 °F - 56.3 °F 74% 29.90 in 10.0 mi NW 9.2 mph - N/A   Clear
10:15 PM 63.9 °F - 56.1 °F 76% 29.90 in 10.0 mi NW 6.9 mph - N/A   Clear
10:19 PM 63.7 °F - 56.3 °F 77% 29.91 in 10.0 mi NW 5.8 mph - N/A   Clear
10:38 PM 61.3 °F - 55.4 °F 81% 29.91 in 10.0 mi WNW 6.9 mph - N/A   Clear
10:55 PM 61.9 °F - 53.1 °F 73% 29.92 in 10.0 mi WNW 5.8 mph - N/A   Clear
11:15 PM 60.3 °F - 52.7 °F 76% 29.92 in 10.0 mi WNW 6.9 mph - N/A   Clear
11:16 PM 60.1 °F - 52.7 °F 77% 29.92 in 10.0 mi WNW 6.9 mph - N/A   Clear
11:35 PM 59.7 °F - 52.3 °F 77% 29.93 in 10.0 mi WNW 5.8 mph - N/A   Clear
11:36 PM 59.5 °F - 52.2 °F 77% 29.93 in 10.0 mi WNW 5.8 mph - N/A   Clear
11:55 PM 58.6 °F - 51.8 °F 78% 29.93 in 10.0 mi NW 4.6 mph - N/A   Clear